When you browse on this site, cookies collect data to enhance your experience and personalize the content and advertising you see.
Visit our Privacy Policy to learn more. By continuing to use the site, you agree to this use of cookies and data.
  • In Hungary
  • List of Countries
  • For 7 days
  • Water Temperature
  • Satellite Maps
  • Weather Map
  • News
  • Weather Widgets
  • user-avatar
    Login

    Hourly Weather Zary

    Today, 19 May, Sunday

    Time Temperature Precipitation Wind Pressure Humidity
    00:00 +12°C° 0.2 mm 1 mps 717 mmHg 91%
    01:00 +12°C° 0 mm 1 mps 717 mmHg 92%
    02:00 +11°C° 0 mm 1 mps 717 mmHg 92%
    03:00 +11°C° 0 mm 1 mps 717 mmHg 92%
    04:00 +11°C° 0 mm 1 mps 717 mmHg 92%
    05:00 +12°C° 0 mm 1 mps 717 mmHg 88%
    06:00 +14°C° 0 mm 1 mps 717 mmHg 83%
    07:00 +16°C° 0 mm 1 mps 717 mmHg 79%
    08:00 +18°C° 0 mm 1 mps 717 mmHg 74%
    09:00 +20°C° 0 mm 1 mps 717 mmHg 68%
    10:00 +21°C° 0 mm 2 mps 717 mmHg 62%
    11:00 +21°C° 0.1 mm 2 mps 717 mmHg 61%
    12:00 +22°C° 0.1 mm 3 mps 717 mmHg 59%
    13:00 +24°C° 0.1 mm 3 mps 717 mmHg 57%
    14:00 +24°C° 0.9 mm 3 mps 717 mmHg 60%
    15:00 +22°C° 0.9 mm 3 mps 716 mmHg 62%
    16:00 +22°C° 0.9 mm 3 mps 716 mmHg 65%
    17:00 +21°C° 0.4 mm 3 mps 716 mmHg 70%
    18:00 +19°C° 0.4 mm 3 mps 716 mmHg 75%
    19:00 +18°C° 0.4 mm 2 mps 716 mmHg 80%
    20:00 +17°C° 0 mm 2 mps 716 mmHg 82%
    21:00 +16°C° 0 mm 2 mps 715 mmHg 85%
    22:00 +14°C° 0 mm 2 mps 715 mmHg 88%
    23:00 +14°C° 0 mm 1 mps 715 mmHg 88%

    Tomorrow, 20 May, Monday

    Time Temperature Precipitation Wind Pressure Humidity
    00:00 +13°C° 0 mm 1 mps 715 mmHg 88%
    01:00 +12°C° 0 mm 0 mps 715 mmHg 88%
    02:00 +13°C° 0 mm 1 mps 715 mmHg 90%
    03:00 +12°C° 0 mm 1 mps 715 mmHg 91%
    04:00 +12°C° 0 mm 1 mps 714 mmHg 92%
    05:00 +13°C° 0.1 mm 2 mps 714 mmHg 90%
    06:00 +14°C° 0.1 mm 2 mps 715 mmHg 89%
    07:00 +15°C° 0.1 mm 2 mps 715 mmHg 87%
    08:00 +17°C° 0 mm 2 mps 715 mmHg 80%
    09:00 +19°C° 0 mm 2 mps 715 mmHg 73%
    10:00 +20°C° 0 mm 3 mps 716 mmHg 67%
    11:00 +21°C° 0.2 mm 3 mps 716 mmHg 63%
    12:00 +22°C° 0.2 mm 3 mps 716 mmHg 59%
    13:00 +24°C° 0.2 mm 3 mps 716 mmHg 55%
    14:00 +24°C° 0.1 mm 3 mps 716 mmHg 54%
    15:00 +24°C° 0.1 mm 2 mps 716 mmHg 53%
    16:00 +24°C° 0.1 mm 2 mps 716 mmHg 52%
    17:00 +21°C° 0.1 mm 2 mps 716 mmHg 57%
    18:00 +20°C° 0.1 mm 2 mps 716 mmHg 62%
    19:00 +19°C° 0.1 mm 1 mps 715 mmHg 67%
    20:00 +18°C° 0 mm 1 mps 715 mmHg 69%
    21:00 +15°C° 0 mm 2 mps 716 mmHg 70%
    22:00 +14°C° 0 mm 2 mps 716 mmHg 72%
    23:00 +14°C° 0 mm 2 mps 716 mmHg 74%

    Day after tomorrow, 21 May, Tuesday

    Time Temperature Precipitation Wind Pressure Humidity
    00:00 +13°C° 0 mm 1 mps 716 mmHg 75%
    01:00 +13°C° 0 mm 1 mps 715 mmHg 77%
    02:00 +13°C° 0 mm 1 mps 715 mmHg 78%
    03:00 +12°C° 0 mm 1 mps 715 mmHg 78%
    04:00 +12°C° 0 mm 1 mps 715 mmHg 79%
    05:00 +14°C° 0 mm 1 mps 716 mmHg 75%
    06:00 +15°C° 0 mm 1 mps 716 mmHg 71%
    07:00 +18°C° 0 mm 1 mps 716 mmHg 68%
    08:00 +18°C° 0.1 mm 1 mps 716 mmHg 65%
    09:00 +18°C° 0.1 mm 2 mps 716 mmHg 63%
    10:00 +18°C° 0.1 mm 3 mps 716 mmHg 61%
    11:00 +18°C° 0.1 mm 3 mps 716 mmHg 61%
    12:00 +18°C° 0.1 mm 3 mps 716 mmHg 62%
    13:00 +18°C° 0.1 mm 3 mps 716 mmHg 62%
    14:00 +18°C° 0.1 mm 2 mps 716 mmHg 63%
    15:00 +18°C° 0.1 mm 2 mps 716 mmHg 65%
    16:00 +18°C° 0.1 mm 2 mps 716 mmHg 66%
    17:00 +18°C° 0.4 mm 1 mps 716 mmHg 71%
    18:00 +16°C° 0.4 mm 1 mps 716 mmHg 75%
    19:00 +15°C° 0.4 mm 1 mps 716 mmHg 79%
    20:00 +14°C° 0 mm 1 mps 716 mmHg 81%
    21:00 +14°C° 0 mm 1 mps 716 mmHg 83%
    22:00 +13°C° 0 mm 2 mps 717 mmHg 85%
    23:00 +13°C° 0 mm 2 mps 716 mmHg 87%

    22 May, Wednesday

    Time Temperature Precipitation Wind Pressure Humidity
    00:00 +12°C° 0 mm 2 mps 716 mmHg 89%
    01:00 +12°C° 0 mm 2 mps 716 mmHg 91%
    02:00 +10°C° 0 mm 2 mps 716 mmHg 91%
    03:00 +10°C° 0 mm 2 mps 717 mmHg 91%
    04:00 +10°C° 0 mm 2 mps 717 mmHg 92%
    05:00 +12°C° 0 mm 2 mps 717 mmHg 88%
    06:00 +12°C° 0 mm 3 mps 717 mmHg 85%
    07:00 +13°C° 0 mm 3 mps 717 mmHg 82%
    08:00 +14°C° 0.2 mm 3 mps 718 mmHg 77%
    09:00 +17°C° 0.2 mm 3 mps 718 mmHg 73%
    10:00 +18°C° 0.2 mm 3 mps 718 mmHg 68%
    11:00 +18°C° 0.8 mm 4 mps 718 mmHg 71%
    12:00 +18°C° 0.8 mm 4 mps 718 mmHg 73%
    13:00 +17°C° 0.8 mm 5 mps 718 mmHg 75%
    14:00 +17°C° 0.4 mm 5 mps 718 mmHg 75%
    15:00 +16°C° 0.4 mm 5 mps 718 mmHg 76%
    16:00 +16°C° 0.4 mm 5 mps 718 mmHg 77%
    17:00 +15°C° 0.2 mm 4 mps 718 mmHg 81%
    18:00 +14°C° 0.2 mm 4 mps 718 mmHg 86%
    19:00 +13°C° 0.2 mm 3 mps 719 mmHg 90%
    20:00 +13°C° 0.1 mm 3 mps 719 mmHg 91%
    21:00 +13°C° 0.1 mm 4 mps 719 mmHg 93%
    22:00 +12°C° 0.1 mm 4 mps 720 mmHg 94%
    23:00 +12°C° 0 mm 4 mps 720 mmHg 94%

    23 May, Thursday

    Time Temperature Precipitation Wind Pressure Humidity
    00:00 +12°C° 0 mm 4 mps 720 mmHg 94%
    01:00 +11°C° 0 mm 4 mps 720 mmHg 95%
    02:00 +11°C° 0.2 mm 4 mps 720 mmHg 94%
    03:00 +11°C° 0.2 mm 4 mps 720 mmHg 94%
    04:00 +11°C° 0.2 mm 4 mps 720 mmHg 94%
    05:00 +11°C° 0.1 mm 4 mps 721 mmHg 92%
    06:00 +12°C° 0.1 mm 5 mps 721 mmHg 90%
    07:00 +12°C° 0.1 mm 5 mps 721 mmHg 88%
    08:00 +13°C° 0 mm 5 mps 722 mmHg 80%
    09:00 +14°C° 0 mm 5 mps 722 mmHg 71%
    10:00 +15°C° 0 mm 6 mps 722 mmHg 62%
    11:00 +15°C° 0 mm 5 mps 722 mmHg 58%
    12:00 +16°C° 0 mm 5 mps 722 mmHg 54%
    13:00 +17°C° 0 mm 5 mps 722 mmHg 49%
    14:00 +17°C° 0 mm 5 mps 722 mmHg 50%
    15:00 +17°C° 0 mm 5 mps 722 mmHg 51%
    16:00 +17°C° 0 mm 5 mps 722 mmHg 52%
    17:00 +15°C° 0 mm 4 mps 721 mmHg 58%
    18:00 +14°C° 0 mm 3 mps 721 mmHg 64%
    19:00 +13°C° 0 mm 2 mps 721 mmHg 71%
    20:00 +12°C° 0 mm 1 mps 722 mmHg 75%
    21:00 +10°C° 0 mm 1 mps 722 mmHg 78%
    22:00 +8°C° 0 mm 0 mps 722 mmHg 82%
    23:00 +8°C° 0 mm 0 mps 722 mmHg 83%

    24 May, Friday

    Time Temperature Precipitation Wind Pressure Humidity
    00:00 +8°C° 0 mm 0 mps 722 mmHg 83%
    01:00 +7°C° 0 mm 0 mps 722 mmHg 84%
    02:00 +7°C° 0 mm 0 mps 721 mmHg 85%
    03:00 +7°C° 0 mm 0 mps 721 mmHg 86%
    04:00 +7°C° 0 mm 0 mps 721 mmHg 86%
    05:00 +8°C° 0 mm 0 mps 721 mmHg 81%
    06:00 +10°C° 0 mm 0 mps 721 mmHg 75%
    07:00 +12°C° 0 mm 0 mps 721 mmHg 69%
    08:00 +14°C° 0 mm 0 mps 721 mmHg 64%
    09:00 +15°C° 0 mm 0 mps 721 mmHg 60%
    10:00 +17°C° 0 mm 0 mps 721 mmHg 55%
    11:00 +19°C° 0 mm 1 mps 720 mmHg 53%
    12:00 +20°C° 0 mm 1 mps 720 mmHg 51%
    13:00 +19°C° 0 mm 2 mps 720 mmHg 48%
    14:00 +19°C° 0 mm 2 mps 719 mmHg 50%
    15:00 +19°C° 0 mm 2 mps 719 mmHg 51%
    16:00 +19°C° 0 mm 2 mps 719 mmHg 52%
    17:00 +18°C° 0 mm 2 mps 719 mmHg 58%
    18:00 +16°C° 0 mm 2 mps 718 mmHg 64%
    19:00 +15°C° 0 mm 2 mps 718 mmHg 70%
    20:00 +13°C° 0 mm 2 mps 718 mmHg 73%
    21:00 +12°C° 0 mm 2 mps 718 mmHg 75%
    22:00 +10°C° 0 mm 2 mps 719 mmHg 77%
    23:00 +10°C° 0 mm 2 mps 718 mmHg 79%
    Show more